Regional Weather Roundup
Issued by NWS State College, PA

Home | Current Version | Previous Version | Text Only | Print | Product List | Glossary On
Versions: 1 2 3 4 5 6 7 8 9 10 11 12 13 14 15 16 17 18 19 20 21 22 23 24 25 26 27 28 29 30 31 32 33 34 35 36 37 38 39 40 41 42 43 44 45 46 47 48 49 50
000
ASUS41 KCTP 221110
RWRCTP

REGIONAL WEATHER ROUNDUP
NATIONAL WEATHER SERVICE STATE COLLEGE PA
600 AM EST WED FEB 22 2017

Note: "fair" indicates few or no clouds below 12,000 feet with no
significant weather and/or obstructions to visibility.

* = STATION THAT DOES NOT REPORT PRECIPITATION /E.G. RAIN...SNOW...ETC/
    THUNDER OR FOG.

PAZ002>004-007>009-013>016-020>023-029>032-221200-
WESTERN PENNSYLVANIA

CITY           SKY/WX    TMP DP  RH WIND       PRES   REMARKS
ERIE           MOCLDY    52  44  74 S5        29.90F
MEADVILLE      CLOUDY    52  44  74 S6        29.91F
FRANKLIN*      CLOUDY    48  39  71 S6        29.94S
NEW CASTLE     CLOUDY    52  45  77 W5        29.94S
BEAVER COUNTY  NOT AVBL
BUTLER*        CLOUDY    50  39  66 S3        29.95S
PITTSBURGH INT CLOUDY    52  45  77 S3        29.94R
PITTSBURGH     CLOUDY    55  38  52 S6        29.94R
INDIANA*       CLOUDY    48  39  71 CALM      29.98S
LATROBE        CLOUDY    48  41  76 CALM      29.97R
WASHINGTON CO* CLOUDY    50  45  81 CALM      29.97R
$$

PAZ004>006-010>012-017>019-024>028-033>037-041-042-045-046-049>053-221200-
CENTRAL PENNSYLVANIA

CITY           SKY/WX    TMP DP  RH WIND       PRES   REMARKS
BRADFORD       CLOUDY    44  36  73 CALM      29.94R
DUBOIS         CLOUDY    46  33  60 CALM      29.94S
CLEARFIELD       N/A    N/A N/A N/A MISG      29.96S
JOHNSTOWN      CLOUDY    52  37  56 SW6       29.96S
ALTOONA        CLOUDY    45  36  70 CALM      29.97S
STATE COLLEGE  CLOUDY    43  34  70 CALM      29.98S
WILLIAMSPORT   CLOUDY    44  32  62 SE3       29.99S
SELINSGROVE    CLOUDY    43  34  70 S3        30.02R
FT INDIANTOWN  CLOUDY    39  39  99 CALM      30.02F
CAPITAL CITY   CLOUDY    43  35  73 CALM      30.03S
HARRISBURG     CLOUDY    41  37  86 CALM      30.02S
YORK           CLOUDY    42  37  82 CALM      30.01F
$$

PAZ038>040-043-044-047-048-054-055-060>062-067>071-221200-
EASTERN PENNSYLVANIA

CITY           SKY/WX    TMP DP  RH WIND       PRES   REMARKS
SCRANTON       CLOUDY    44  33  65 CALM      30.00R
MOUNT POCONO   CLOUDY    38  33  82 W6        29.98S
ALLENTOWN      CLOUDY    40  33  76 CALM      30.04S
QUAKERTOWN*    CLOUDY    39  36  87 CALM      30.05S
READING        CLOUDY    42  37  82 CALM      30.03S
LANCASTER      CLOUDY    39  38  96 E5        30.02F
COATESVILLE    CLOUDY    39  36  87 CALM      30.04F
POTTSTOWN      CLOUDY    40  35  83 CALM      30.06S
BLUE BELL      CLOUDY    37  34  87 CALM      30.05S
DOYLESTOWN     CLOUDY    41  35  79 CALM      30.04S
WILLOW GROVE   NOT AVBL
NORTH PHILA    CLOUDY    43  37  79 SE3       30.08S
PHILADELPHIA   CLOUDY    42  37  82 CALM      30.08R
$$




USA.gov is the U.S. government's official web portal to all federal, state and local government web resources and services.